sat.trackr.live / text

‹ back to catalog

QMR-KWT-2 (RS95S)

NORAD 67291 · 2025-313AV

PAYLOAD ACTIVE UNKNOWN

§ Identity

Operator
Country
KWT
Launch date
2025-12-28
Launch site
VOSTO
Launch vehicle
Mass (kg)
RCS (m²)

External: N2YO · Heavens-Above · Gunter

§ Orbital elements

Epoch: 2026-09-18T10:31:45.146208Z

Period
94.21 min
Inclination
97.3844°
Eccentricity
0.0008824
Mean motion
15.28472222 rev/d
Perigee alt
474.3 km
Apogee alt
486.4 km
Semi-major
6,858.5 km
B*
3.7511e-4
RAAN
335.7841°
Arg perigee
33.4783°
Mean anomaly
326.7013°
Rev number
4,022

§ Raw data

QMR-KWT-2 (RS95S)1 67291U 25313AV  26261.43871697  .00010335  00000+0  37511-3 0  99922 67291  97.3844 335.7841 0008824  33.4783 326.7013 15.28472222 40228

JSON: /api/v1/satellites/67291 · /tle

For live sub-satellite position, see the globe view (requires WebGL).

§ Visibility from observer

Set your observer location to see the next 7 days of passes ≥ 10°. The values pass through the URL so the page stays shareable.

No JS? Fill the form by hand. The geolocation button needs JavaScript.

§ Radio — SatNOGS DB

ModeDescriptionDownlinkUplink
GMSK Mode U - GMSK2k4 - Telemetry 436.950 MHz
SSTV SSTV 436.950 MHz
FM V/U FM Transponder CTCSS 67.0 Hz 436.950 MHz 145.920 MHz

3 transmitters · refreshed weekly from db.satnogs.org